Regional Weather Roundup
Issued by NWS Goodland, KS

Home | Current Version | Previous Version | Graphics & Text | Print | Product List | Glossary On
Versions: 1 2 3 4 5 6 7 8 9 10 11 12 13 14 15 16 17 18 19 20 21 22 23 24 25 26 27 28 29 30 31 32 33 34 35 36 37 38 39 40 41 42 43 44 45 46 47 48 49 50
000
ASUS43 KGLD 251759
RWRGLD

GOODLAND FORECAST AREA HOURLY WEATHER ROUNDUP
NATIONAL WEATHER SERVICE GOODLAND KS
1200 PM MDT SAT MAR 25 2017

...OFFICIAL OBSERVATIONS...

CITY           SKY/WX    TMP DP  RH WIND       PRES   REMARKS
GOODLAND KS    FAIR      52  29  41 N6        30.02F
HILL CITY KS   CLOUDY    46  39  76 N9        30.02F
IMPERIAL NEB   FAIR      54  29  38 N5        30.02F
MCCOOK NEB     FAIR      55  36  48 NW9       30.00F
AKRON CO       FAIR      55  29  36 SW7       30.01F
BURLINGTON CO  FAIR      52  31  44 SW5       30.03F
LIMON CO       FAIR      55  33  43 VRB6      30.02F
$$

...UNOFFICIAL OBSERVATIONS...

CITY           SKY/WX    TMP DP  RH WIND       PRES   REMARKS
LENORA KS        N/A     42  32  68 CALM        N/A
NORTON KS      CLOUDY    45  37  76 NW9       30.01F
SHARON SPRINGS   N/A     55  28  35 NW12        N/A
TRENTON NEB      N/A     54  32  43 CALM        N/A
YUMA CO        FAIR      52  28  40 CALM      30.01F
$$




USA.gov is the U.S. government's official web portal to all federal, state and local government web resources and services.